EWG82U LGAV-EDDL

Flight info

Callsign EWG82U
Flight time 2h 48m
Altitude 36000
Route KRO T162 NEVRA/N0452F360 UT514 TSL UL617 MAKED DCT SKJ DCT LONTA UL608 DOLEV DCT LAMSI DCT TESDU DCT AMETU T852 TINSA T854 DOMUX DOMUX1A
Aircraft A319/M-SDE3FGHIRWY/LB1

Departure

Time 2026-05-06 15:22
Airport Athens Eleftherios Venizelos International Airport (LGAV)

Arrival

Time 2026-05-06 18:10
Airport Düsseldorf Airport (EDDL)
Time Latitude Longitude Altitude Speed Heading
2026-05-06 14:36 37.93079 23.94234 301 ft 0 kts 37°
2026-05-06 15:08 37.93066 23.94221 304 ft 4 kts 40°
2026-05-06 15:08 37.93046 23.94198 302 ft 4 kts 46°
2026-05-06 15:08 37.93029 23.94172 303 ft 4 kts 56°
2026-05-06 15:09 37.93017 23.94143 301 ft 4 kts 86°
2026-05-06 15:09 37.93018 23.94125 301 ft 1 kts 128°
2026-05-06 15:13 37.93018 23.94126 301 ft 0 kts 128°
2026-05-06 15:13 37.92990 23.94172 301 ft 15 kts 127°
2026-05-06 15:14 37.92926 23.94280 302 ft 15 kts 127°
2026-05-06 15:14 37.92861 23.94389 301 ft 15 kts 127°
2026-05-06 15:14 37.92824 23.94489 302 ft 11 kts 69°
2026-05-06 15:14 37.92893 23.94563 301 ft 16 kts 35°
2026-05-06 15:15 37.93008 23.94671 301 ft 23 kts 37°
2026-05-06 15:15 37.93134 23.94789 302 ft 23 kts 37°
2026-05-06 15:15 37.93259 23.94907 302 ft 22 kts 37°
2026-05-06 15:15 37.93383 23.95025 299 ft 22 kts 36°
2026-05-06 15:16 37.93505 23.95143 299 ft 22 kts 38°
2026-05-06 15:16 37.93629 23.95258 298 ft 22 kts 35°
2026-05-06 15:16 37.93749 23.95372 297 ft 22 kts 36°
2026-05-06 15:16 37.93871 23.95489 296 ft 22 kts 37°
2026-05-06 15:17 37.93990 23.95603 300 ft 21 kts 36°
2026-05-06 15:17 37.94106 23.95708 299 ft 20 kts 38°
2026-05-06 15:17 37.94217 23.95816 298 ft 20 kts 37°
2026-05-06 15:17 37.94326 23.95919 300 ft 19 kts 37°
2026-05-06 15:18 37.94438 23.96025 301 ft 21 kts 37°
2026-05-06 15:18 37.94554 23.96137 300 ft 21 kts 37°
2026-05-06 15:18 37.94667 23.96245 302 ft 20 kts 37°
2026-05-06 15:18 37.94776 23.96349 300 ft 19 kts 37°
2026-05-06 15:19 37.94881 23.96448 302 ft 18 kts 37°
2026-05-06 15:19 37.94990 23.96552 302 ft 21 kts 37°
2026-05-06 15:19 37.95108 23.96663 303 ft 21 kts 37°
2026-05-06 15:19 37.95222 23.96772 303 ft 20 kts 36°
2026-05-06 15:20 37.95302 23.96856 304 ft 11 kts 66°
2026-05-06 15:20 37.95276 23.96936 306 ft 10 kts 128°
2026-05-06 15:20 37.95240 23.96994 309 ft 7 kts 128°
2026-05-06 15:20 37.95214 23.97033 310 ft 6 kts 143°
2026-05-06 15:21 37.95192 23.97024 310 ft 0 kts 214°
2026-05-06 15:21 37.95002 23.96856 307 ft 69 kts 216°
2026-05-06 15:21 37.94448 23.96315 292 ft 130 kts 217°
2026-05-06 15:22 37.93593 23.95514 350 ft 168 kts 216°
2026-05-06 15:22 37.92626 23.94728 970 ft 165 kts 208°
2026-05-06 15:22 37.91620 23.94041 1576 ft 169 kts 207°
2026-05-06 15:22 37.90524 23.93305 1907 ft 189 kts 207°
2026-05-06 15:23 37.89273 23.92465 2219 ft 211 kts 208°
2026-05-06 15:23 37.87924 23.91553 2577 ft 234 kts 208°
2026-05-06 15:23 37.86455 23.90553 3276 ft 243 kts 209°
2026-05-06 15:23 37.84952 23.89523 4102 ft 248 kts 209°
2026-05-06 15:24 37.83425 23.88479 4964 ft 251 kts 210°
2026-05-06 15:24 37.81927 23.87207 5530 ft 266 kts 228°
2026-05-06 15:24 37.81009 23.85183 6317 ft 270 kts 256°
2026-05-06 15:24 37.80955 23.82817 7136 ft 273 kts 283°
2026-05-06 15:25 37.81782 23.80671 7947 ft 276 kts 309°
2026-05-06 15:25 37.83100 23.78887 8813 ft 278 kts 315°
2026-05-06 15:25 37.84477 23.77147 9676 ft 282 kts 315°
2026-05-06 15:25 37.85881 23.75381 10341 ft 292 kts 315°
2026-05-06 15:26 37.87379 23.73495 10589 ft 316 kts 315°
2026-05-06 15:26 37.88994 23.71460 10790 ft 339 kts 315°
2026-05-06 15:26 37.90824 23.69493 11181 ft 351 kts 329°
2026-05-06 15:26 37.93101 23.68348 11818 ft 356 kts 346°
2026-05-06 15:27 37.95535 23.67678 12539 ft 359 kts 347°
2026-05-06 15:27 37.97987 23.67025 13277 ft 361 kts 348°
2026-05-06 15:27 38.00454 23.66378 13982 ft 364 kts 348°
2026-05-06 15:27 38.02944 23.65726 14619 ft 366 kts 348°
2026-05-06 15:28 38.05451 23.65069 15233 ft 369 kts 347°
2026-05-06 15:28 38.07971 23.64404 15867 ft 371 kts 347°
2026-05-06 15:28 38.10508 23.63729 16480 ft 374 kts 347°
2026-05-06 15:28 38.13066 23.63047 17077 ft 376 kts 346°
2026-05-06 15:29 38.15639 23.62361 17531 ft 379 kts 346°
2026-05-06 15:29 38.18219 23.61672 17800 ft 379 kts 346°
2026-05-06 15:29 38.20804 23.60982 18066 ft 380 kts 346°
2026-05-06 15:29 38.23390 23.60295 18328 ft 381 kts 346°
2026-05-06 15:30 38.25992 23.59603 18561 ft 382 kts 346°
2026-05-06 15:30 38.28565 23.58917 18789 ft 383 kts 346°
2026-05-06 15:30 38.31177 23.58219 19020 ft 385 kts 346°
2026-05-06 15:30 38.33804 23.57514 19251 ft 386 kts 346°
2026-05-06 15:31 38.36433 23.56811 19491 ft 387 kts 346°
2026-05-06 15:31 38.39071 23.56107 19730 ft 388 kts 346°
2026-05-06 15:31 38.41718 23.55401 19967 ft 389 kts 346°
2026-05-06 15:32 38.47019 23.53978 20445 ft 391 kts 346°
2026-05-06 15:32 38.49682 23.53263 20697 ft 392 kts 346°
2026-05-06 15:32 38.52356 23.52545 20938 ft 393 kts 346°
2026-05-06 15:32 38.55036 23.51829 21192 ft 394 kts 346°
2026-05-06 15:33 38.57721 23.51108 21447 ft 395 kts 346°
2026-05-06 15:33 38.60413 23.50384 21704 ft 396 kts 346°
2026-05-06 15:33 38.63114 23.49658 21964 ft 397 kts 346°
2026-05-06 15:33 38.65821 23.48927 22227 ft 398 kts 346°
2026-05-06 15:34 38.68535 23.48191 22483 ft 399 kts 346°
2026-05-06 15:34 38.71256 23.47454 22746 ft 400 kts 346°
2026-05-06 15:34 38.73981 23.46715 23013 ft 401 kts 346°
2026-05-06 15:34 38.76716 23.45973 23289 ft 402 kts 346°
2026-05-06 15:35 38.79463 23.45231 23552 ft 404 kts 346°
2026-05-06 15:35 38.82216 23.44488 23792 ft 405 kts 346°
2026-05-06 15:35 38.84944 23.43751 24018 ft 407 kts 346°
2026-05-06 15:35 38.87715 23.42998 24248 ft 408 kts 346°
2026-05-06 15:36 38.90496 23.42240 24480 ft 409 kts 346°
2026-05-06 15:36 38.93287 23.41480 24716 ft 411 kts 346°
2026-05-06 15:36 38.96088 23.40714 24950 ft 413 kts 346°
2026-05-06 15:36 38.98905 23.39945 25190 ft 414 kts 346°
2026-05-06 15:37 39.01728 23.39176 25429 ft 416 kts 345°
2026-05-06 15:37 39.04562 23.38405 25666 ft 417 kts 345°
2026-05-06 15:37 39.07409 23.37633 25917 ft 419 kts 345°
2026-05-06 15:37 39.10269 23.36856 26163 ft 420 kts 345°
2026-05-06 15:38 39.13135 23.36072 26409 ft 422 kts 345°
2026-05-06 15:38 39.16009 23.35285 26662 ft 424 kts 345°
2026-05-06 15:38 39.18902 23.34492 26913 ft 425 kts 345°
2026-05-06 15:38 39.21802 23.33697 27169 ft 427 kts 345°
2026-05-06 15:39 39.24715 23.32898 27430 ft 429 kts 345°
2026-05-06 15:39 39.27596 23.32107 27685 ft 430 kts 345°
2026-05-06 15:39 39.30535 23.31301 27935 ft 432 kts 345°
2026-05-06 15:39 39.33480 23.30498 28207 ft 434 kts 345°
2026-05-06 15:40 39.36440 23.29686 28477 ft 436 kts 345°
2026-05-06 15:40 39.39410 23.28865 28747 ft 437 kts 345°
2026-05-06 15:40 39.42388 23.28039 29017 ft 438 kts 345°
2026-05-06 15:40 39.45368 23.27211 29291 ft 438 kts 345°
2026-05-06 15:41 39.48345 23.26385 29568 ft 437 kts 345°
2026-05-06 15:41 39.51316 23.25564 29852 ft 437 kts 345°
2026-05-06 15:41 39.54284 23.24744 30126 ft 436 kts 345°
2026-05-06 15:41 39.57249 23.23925 30372 ft 435 kts 345°
2026-05-06 15:42 39.60212 23.23104 30616 ft 435 kts 344°
2026-05-06 15:42 39.63169 23.22283 30860 ft 435 kts 344°
2026-05-06 15:42 39.66126 23.21460 31096 ft 434 kts 344°
2026-05-06 15:42 39.69076 23.20642 31350 ft 434 kts 344°
2026-05-06 15:43 39.72028 23.19826 31598 ft 433 kts 344°
2026-05-06 15:43 39.74974 23.19010 31857 ft 433 kts 344°
2026-05-06 15:43 39.77915 23.18192 32110 ft 433 kts 344°
2026-05-06 15:43 39.80859 23.17371 32369 ft 432 kts 344°
2026-05-06 15:44 39.83801 23.16554 32632 ft 432 kts 344°
2026-05-06 15:44 39.86698 23.15748 32899 ft 432 kts 344°
2026-05-06 15:44 39.89632 23.14928 33178 ft 431 kts 344°
2026-05-06 15:44 39.92562 23.14105 33425 ft 431 kts 344°
2026-05-06 15:45 39.95493 23.13278 33702 ft 430 kts 344°
2026-05-06 15:45 39.98418 23.12451 33960 ft 430 kts 344°
2026-05-06 15:45 40.04270 23.10806 34043 ft 430 kts 345°
2026-05-06 15:46 40.10115 23.09177 34041 ft 430 kts 345°
2026-05-06 15:46 40.15961 23.07532 34041 ft 430 kts 344°
2026-05-06 15:47 40.21469 23.05968 34035 ft 430 kts 345°
2026-05-06 15:47 40.27314 23.04316 34035 ft 430 kts 345°
2026-05-06 15:48 40.33157 23.02667 34029 ft 430 kts 345°
2026-05-06 15:48 40.39001 23.00999 34034 ft 429 kts 345°
2026-05-06 15:49 40.41918 23.00170 34144 ft 429 kts 345°
2026-05-06 15:49 40.44812 22.99244 34265 ft 427 kts 339°
2026-05-06 15:49 40.47559 22.97794 34387 ft 424 kts 331°
2026-05-06 15:49 40.50164 22.95983 34501 ft 424 kts 329°
2026-05-06 15:50 40.52765 22.94160 34632 ft 424 kts 330°
2026-05-06 15:50 40.55370 22.92335 34750 ft 424 kts 330°
2026-05-06 15:50 40.57936 22.90537 34865 ft 424 kts 330°
2026-05-06 15:50 40.60537 22.88717 34990 ft 424 kts 330°
2026-05-06 15:51 40.63139 22.86896 35109 ft 424 kts 330°
2026-05-06 15:51 40.65742 22.85073 35234 ft 424 kts 330°
2026-05-06 15:51 40.68341 22.83246 35359 ft 423 kts 330°
2026-05-06 15:51 40.70939 22.81415 35482 ft 423 kts 329°
2026-05-06 15:52 40.73534 22.79583 35608 ft 423 kts 329°
2026-05-06 15:52 40.76131 22.77748 35730 ft 423 kts 329°
2026-05-06 15:52 40.78724 22.75918 35862 ft 423 kts 330°
2026-05-06 15:52 40.81323 22.74087 35994 ft 424 kts 330°
2026-05-06 15:53 40.86534 22.70411 36015 ft 425 kts 329°
2026-05-06 15:53 40.91744 22.66722 36012 ft 425 kts 329°
2026-05-06 15:54 40.96958 22.63026 36013 ft 425 kts 329°
2026-05-06 15:54 41.02167 22.59328 36013 ft 425 kts 329°
2026-05-06 15:55 41.06499 22.56247 36012 ft 425 kts 329°
2026-05-06 15:55 41.11711 22.52523 36014 ft 425 kts 328°
2026-05-06 15:56 41.17159 22.47074 36009 ft 422 kts 319°
2026-05-06 15:56 41.21712 22.42138 36006 ft 422 kts 319°
2026-05-06 15:57 41.25524 22.37999 36008 ft 422 kts 319°
2026-05-06 15:57 41.30076 22.33051 36008 ft 423 kts 319°
2026-05-06 15:58 41.34627 22.28104 36002 ft 422 kts 319°
2026-05-06 15:58 41.39137 22.23174 36001 ft 422 kts 319°
2026-05-06 15:59 41.43677 22.18210 35992 ft 422 kts 319°
2026-05-06 15:59 41.48211 22.13233 35989 ft 422 kts 318°
2026-05-06 16:00 41.52743 22.08246 35983 ft 422 kts 318°
2026-05-06 16:00 41.57279 22.03264 35982 ft 422 kts 318°
2026-05-06 16:01 41.61815 21.98269 35982 ft 423 kts 318°
2026-05-06 16:01 41.66350 21.93266 35978 ft 423 kts 318°
2026-05-06 16:02 41.70884 21.88245 35975 ft 423 kts 318°
2026-05-06 16:02 41.75412 21.83219 35978 ft 423 kts 318°
2026-05-06 16:03 41.79911 21.78223 35976 ft 423 kts 318°
2026-05-06 16:03 41.84439 21.73191 35983 ft 423 kts 318°
2026-05-06 16:04 41.88961 21.68148 35979 ft 423 kts 318°
2026-05-06 16:04 41.93483 21.63091 35979 ft 423 kts 318°
2026-05-06 16:05 41.98087 21.58167 35978 ft 423 kts 320°
2026-05-06 16:05 42.02784 21.53378 35982 ft 424 kts 320°
2026-05-06 16:06 42.07476 21.48579 35982 ft 424 kts 320°
2026-05-06 16:06 42.12143 21.43732 35985 ft 423 kts 320°
2026-05-06 16:07 42.16631 21.38631 35992 ft 421 kts 310°
2026-05-06 16:07 42.20419 21.32640 35997 ft 420 kts 308°
2026-05-06 16:08 42.24208 21.26636 36006 ft 420 kts 308°
2026-05-06 16:08 42.27974 21.20669 36013 ft 420 kts 308°
2026-05-06 16:09 42.31778 21.14603 36020 ft 420 kts 308°
2026-05-06 16:09 42.35528 21.08607 36025 ft 421 kts 308°
2026-05-06 16:10 42.39311 21.02567 36027 ft 421 kts 308°
2026-05-06 16:10 42.43090 20.96514 36028 ft 421 kts 308°
2026-05-06 16:11 42.46863 20.90449 36029 ft 421 kts 308°
2026-05-06 16:11 42.50636 20.84377 36031 ft 421 kts 308°
2026-05-06 16:12 42.54412 20.78299 36031 ft 421 kts 308°
2026-05-06 16:12 42.58187 20.72209 36031 ft 422 kts 308°
2026-05-06 16:13 42.61952 20.66104 36031 ft 422 kts 308°
2026-05-06 16:13 42.65717 20.59994 36031 ft 422 kts 308°
2026-05-06 16:14 42.69479 20.53877 36033 ft 422 kts 308°
2026-05-06 16:14 42.73212 20.47787 36031 ft 422 kts 308°
2026-05-06 16:15 42.76972 20.41657 36031 ft 422 kts 308°
2026-05-06 16:15 42.80725 20.35519 36031 ft 422 kts 308°
2026-05-06 16:16 42.84784 20.29743 36029 ft 426 kts 320°
2026-05-06 16:16 42.89546 20.24934 36029 ft 426 kts 321°
2026-05-06 16:17 42.94302 20.20104 36023 ft 426 kts 320°
2026-05-06 16:17 42.99051 20.15261 36025 ft 426 kts 320°
2026-05-06 16:18 43.03813 20.10427 36017 ft 426 kts 320°
2026-05-06 16:18 43.08578 20.05591 36014 ft 427 kts 320°
2026-05-06 16:19 43.13334 20.00722 36017 ft 427 kts 320°
2026-05-06 16:19 43.18088 19.95846 36024 ft 427 kts 320°
2026-05-06 16:20 43.22849 19.90975 36020 ft 427 kts 320°
2026-05-06 16:20 43.27612 19.86087 36008 ft 428 kts 320°
2026-05-06 16:21 43.32338 19.81219 36009 ft 428 kts 320°
2026-05-06 16:21 43.37095 19.76302 36003 ft 428 kts 320°
2026-05-06 16:22 43.41855 19.71377 35999 ft 428 kts 320°
2026-05-06 16:22 43.46614 19.66447 35994 ft 428 kts 320°
2026-05-06 16:23 43.51374 19.61507 35994 ft 429 kts 320°
2026-05-06 16:23 43.56131 19.56554 35984 ft 429 kts 320°
2026-05-06 16:24 43.60891 19.51588 35981 ft 429 kts 320°
2026-05-06 16:24 43.65648 19.46609 35975 ft 429 kts 320°
2026-05-06 16:25 43.70408 19.41621 35972 ft 430 kts 320°
2026-05-06 16:25 43.75170 19.36629 35962 ft 430 kts 320°
2026-05-06 16:26 43.79934 19.31625 35961 ft 430 kts 320°
2026-05-06 16:26 43.84702 19.26597 35954 ft 431 kts 320°
2026-05-06 16:27 43.89468 19.21568 35963 ft 431 kts 320°
2026-05-06 16:27 43.94205 19.16562 35960 ft 431 kts 319°
2026-05-06 16:28 43.98974 19.11510 35956 ft 431 kts 319°
2026-05-06 16:28 44.03741 19.06453 35953 ft 431 kts 319°
2026-05-06 16:29 44.08506 19.01378 35951 ft 432 kts 319°
2026-05-06 16:29 44.13278 18.96295 35947 ft 432 kts 319°
2026-05-06 16:30 44.17240 18.92071 35934 ft 432 kts 319°
2026-05-06 16:30 44.22809 18.86105 35922 ft 432 kts 319°
2026-05-06 16:31 44.27569 18.80995 35909 ft 432 kts 319°
2026-05-06 16:31 44.32333 18.75867 35902 ft 432 kts 319°
2026-05-06 16:32 44.37063 18.70770 35896 ft 433 kts 319°
2026-05-06 16:32 44.41825 18.65626 35896 ft 432 kts 319°
2026-05-06 16:33 44.46583 18.60480 35897 ft 432 kts 319°
2026-05-06 16:34 44.53719 18.52746 35904 ft 432 kts 319°
2026-05-06 16:34 44.58470 18.47574 35910 ft 432 kts 319°
2026-05-06 16:35 44.63221 18.42398 35911 ft 432 kts 319°
2026-05-06 16:35 44.67968 18.37213 35920 ft 432 kts 319°
2026-05-06 16:36 44.72711 18.32012 35910 ft 433 kts 318°
2026-05-06 16:36 44.77426 18.26841 35913 ft 433 kts 318°
2026-05-06 16:37 44.82176 18.21626 35915 ft 433 kts 318°
2026-05-06 16:37 44.86924 18.16396 35907 ft 433 kts 318°
2026-05-06 16:38 44.91663 18.11150 35907 ft 433 kts 318°
2026-05-06 16:38 44.96410 18.05894 35911 ft 434 kts 318°
2026-05-06 16:39 45.01160 18.00636 35910 ft 434 kts 318°
2026-05-06 16:39 45.05913 17.95362 35906 ft 434 kts 318°
2026-05-06 16:40 45.10658 17.90066 35908 ft 435 kts 318°
2026-05-06 16:40 45.15411 17.84753 35908 ft 435 kts 318°
2026-05-06 16:41 45.20163 17.79442 35906 ft 436 kts 318°
2026-05-06 16:41 45.24924 17.74109 35908 ft 436 kts 318°
2026-05-06 16:42 45.29679 17.68763 35907 ft 437 kts 318°
2026-05-06 16:42 45.34416 17.63432 35907 ft 437 kts 318°
2026-05-06 16:43 45.39181 17.58055 35910 ft 438 kts 318°
2026-05-06 16:43 45.43948 17.52659 35910 ft 438 kts 318°
2026-05-06 16:44 45.48719 17.47247 35905 ft 438 kts 318°
2026-05-06 16:44 45.53492 17.41826 35907 ft 439 kts 318°
2026-05-06 16:45 45.58269 17.36391 35907 ft 439 kts 318°
2026-05-06 16:45 45.63045 17.30940 35910 ft 440 kts 318°
2026-05-06 16:46 45.67822 17.25480 35908 ft 440 kts 318°
2026-05-06 16:46 45.72594 17.19996 35910 ft 440 kts 318°
2026-05-06 16:47 45.77373 17.14511 35905 ft 440 kts 318°
2026-05-06 16:47 45.82151 17.09017 35908 ft 440 kts 318°
2026-05-06 16:48 45.86919 17.03508 35905 ft 440 kts 318°
2026-05-06 16:48 45.91685 16.97991 35904 ft 440 kts 318°
2026-05-06 16:49 45.96425 16.92504 35904 ft 440 kts 318°
2026-05-06 16:49 46.01191 16.86973 35906 ft 440 kts 318°
2026-05-06 16:50 46.05948 16.81423 35903 ft 440 kts 317°
2026-05-06 16:50 46.10699 16.75862 35904 ft 440 kts 318°
2026-05-06 16:51 46.15452 16.70304 35904 ft 440 kts 318°
2026-05-06 16:51 46.20211 16.64740 35901 ft 440 kts 318°
2026-05-06 16:52 46.24157 16.60101 35901 ft 440 kts 317°
2026-05-06 16:52 46.28900 16.54509 35896 ft 440 kts 317°
2026-05-06 16:53 46.33641 16.48899 35892 ft 440 kts 318°
2026-05-06 16:53 46.38391 16.43288 35888 ft 441 kts 318°
2026-05-06 16:54 46.43137 16.37660 35887 ft 441 kts 317°
2026-05-06 16:54 46.47854 16.32056 35882 ft 441 kts 317°
2026-05-06 16:55 46.52602 16.26405 35878 ft 441 kts 317°
2026-05-06 16:55 46.57345 16.20740 35877 ft 442 kts 317°
2026-05-06 16:56 46.62085 16.15061 35881 ft 442 kts 317°
2026-05-06 16:56 46.66828 16.09375 35881 ft 442 kts 317°
2026-05-06 16:57 46.71563 16.03680 35883 ft 441 kts 317°
2026-05-06 16:57 46.76297 15.97969 35880 ft 441 kts 317°
2026-05-06 16:58 46.81029 15.92257 35876 ft 441 kts 317°
2026-05-06 16:58 46.85749 15.86535 35870 ft 441 kts 317°
2026-05-06 16:59 46.90412 15.80866 35862 ft 441 kts 317°
2026-05-06 16:59 46.95127 15.75126 35858 ft 441 kts 317°
2026-05-06 17:00 46.99846 15.69379 35847 ft 441 kts 317°
2026-05-06 17:00 47.04563 15.63616 35838 ft 441 kts 317°
2026-05-06 17:01 47.09242 15.57874 35839 ft 441 kts 317°
2026-05-06 17:01 47.13949 15.52093 35849 ft 442 kts 317°
2026-05-06 17:02 47.18655 15.46289 35852 ft 442 kts 317°
2026-05-06 17:02 47.23359 15.40477 35851 ft 442 kts 317°
2026-05-06 17:03 47.28067 15.34662 35840 ft 442 kts 317°
2026-05-06 17:03 47.32776 15.28834 35851 ft 442 kts 317°
2026-05-06 17:04 47.37475 15.22984 35834 ft 442 kts 317°
2026-05-06 17:04 47.42172 15.17122 35834 ft 442 kts 316°
2026-05-06 17:05 47.46875 15.11259 35829 ft 442 kts 316°
2026-05-06 17:05 47.51570 15.05385 35820 ft 442 kts 316°
2026-05-06 17:06 47.56262 14.99491 35811 ft 442 kts 316°
2026-05-06 17:06 47.60918 14.93621 35804 ft 443 kts 316°
2026-05-06 17:07 47.65606 14.87702 35785 ft 443 kts 316°
2026-05-06 17:07 47.70261 14.81811 35778 ft 443 kts 316°
2026-05-06 17:08 47.74956 14.75864 35768 ft 443 kts 316°
2026-05-06 17:08 47.79641 14.69911 35759 ft 443 kts 316°
2026-05-06 17:09 47.84326 14.63939 35747 ft 444 kts 316°
2026-05-06 17:09 47.89018 14.57955 35736 ft 444 kts 316°
2026-05-06 17:10 47.93697 14.51962 35724 ft 444 kts 316°
2026-05-06 17:10 47.98348 14.45986 35708 ft 444 kts 315°
2026-05-06 17:11 48.03029 14.39962 35692 ft 444 kts 315°
2026-05-06 17:11 48.07709 14.33927 35682 ft 444 kts 315°
2026-05-06 17:12 48.12387 14.27883 35674 ft 445 kts 315°
2026-05-06 17:12 48.17070 14.21821 35672 ft 445 kts 315°
2026-05-06 17:13 48.21752 14.15736 35674 ft 445 kts 315°
2026-05-06 17:13 48.26432 14.09637 35674 ft 446 kts 315°
2026-05-06 17:14 48.31115 14.03522 35673 ft 446 kts 315°
2026-05-06 17:14 48.35795 13.97390 35679 ft 447 kts 315°
2026-05-06 17:15 48.40469 13.91236 35684 ft 447 kts 315°
2026-05-06 17:15 48.45156 13.85067 35689 ft 448 kts 315°
2026-05-06 17:16 48.49844 13.78889 35690 ft 448 kts 314°
2026-05-06 17:16 48.54535 13.72689 35687 ft 449 kts 314°
2026-05-06 17:17 48.59227 13.66473 35691 ft 449 kts 314°
2026-05-06 17:17 48.63885 13.60268 35697 ft 449 kts 314°
2026-05-06 17:18 48.67969 13.53252 35695 ft 443 kts 303°
2026-05-06 17:18 48.71759 13.45881 35703 ft 444 kts 303°
2026-05-06 17:19 48.75547 13.38500 35703 ft 444 kts 303°
2026-05-06 17:19 48.79338 13.31107 35710 ft 444 kts 303°
2026-05-06 17:20 48.83134 13.23695 35713 ft 445 kts 303°
2026-05-06 17:20 48.86919 13.16274 35715 ft 445 kts 303°
2026-05-06 17:21 48.90700 13.08829 35716 ft 445 kts 303°
2026-05-06 17:21 48.94479 13.01361 35724 ft 445 kts 303°
2026-05-06 17:22 48.98257 12.93887 35724 ft 445 kts 303°
2026-05-06 17:22 49.02026 12.86401 35729 ft 446 kts 303°
2026-05-06 17:23 49.05773 12.78949 35727 ft 446 kts 303°
2026-05-06 17:23 49.09543 12.71440 35733 ft 446 kts 303°
2026-05-06 17:24 49.13308 12.63900 35734 ft 446 kts 303°
2026-05-06 17:24 49.17074 12.56358 35735 ft 447 kts 303°
2026-05-06 17:25 49.20839 12.48795 35733 ft 447 kts 302°
2026-05-06 17:25 49.24597 12.41211 35739 ft 448 kts 302°
2026-05-06 17:26 49.28356 12.33597 35746 ft 448 kts 302°
2026-05-06 17:26 49.32110 12.25968 35755 ft 449 kts 302°
2026-05-06 17:27 49.35872 12.18325 35752 ft 449 kts 302°
2026-05-06 17:27 49.39606 12.10715 35753 ft 449 kts 302°
2026-05-06 17:28 49.43356 12.03032 35758 ft 450 kts 302°
2026-05-06 17:28 49.47096 11.95323 35763 ft 450 kts 302°
2026-05-06 17:29 49.50839 11.87599 35770 ft 450 kts 302°
2026-05-06 17:29 49.54592 11.79872 35779 ft 451 kts 302°
2026-05-06 17:30 49.58338 11.72132 35777 ft 451 kts 302°
2026-05-06 17:30 49.61987 11.64567 35779 ft 451 kts 302°
2026-05-06 17:31 49.65696 11.56839 35775 ft 451 kts 302°
2026-05-06 17:31 49.69421 11.49045 35780 ft 451 kts 301°
2026-05-06 17:32 49.73141 11.41241 35778 ft 451 kts 302°
2026-05-06 17:32 49.76865 11.33423 35782 ft 451 kts 301°
2026-05-06 17:33 49.80584 11.25583 35787 ft 452 kts 301°
2026-05-06 17:33 49.84295 11.17731 35788 ft 452 kts 301°
2026-05-06 17:34 49.88007 11.09862 35787 ft 452 kts 301°
2026-05-06 17:34 49.91714 11.01987 35792 ft 452 kts 301°
2026-05-06 17:35 49.95419 10.94091 35792 ft 453 kts 301°
2026-05-06 17:35 49.99120 10.86170 35787 ft 453 kts 301°
2026-05-06 17:36 50.04661 10.74265 35782 ft 453 kts 301°
2026-05-06 17:36 50.08356 10.66302 35784 ft 454 kts 301°
2026-05-06 17:37 50.12046 10.58330 35787 ft 454 kts 301°
2026-05-06 17:37 50.15710 10.50398 35791 ft 454 kts 301°
2026-05-06 17:38 50.19396 10.42388 35790 ft 454 kts 301°
2026-05-06 17:38 50.23058 10.34350 35791 ft 454 kts 300°
2026-05-06 17:39 50.26675 10.26250 35792 ft 454 kts 300°
2026-05-06 17:39 50.30278 10.18139 35793 ft 454 kts 300°
2026-05-06 17:40 50.33889 10.10026 35792 ft 454 kts 300°
2026-05-06 17:40 50.37500 10.01906 35799 ft 454 kts 300°
2026-05-06 17:41 50.41106 9.93768 35790 ft 455 kts 300°
2026-05-06 17:41 50.44700 9.85608 35795 ft 455 kts 300°
2026-05-06 17:42 50.48294 9.77426 35794 ft 455 kts 300°
2026-05-06 17:42 50.51863 9.69305 35799 ft 455 kts 300°
2026-05-06 17:43 50.55450 9.61098 35802 ft 455 kts 300°
2026-05-06 17:43 50.59026 9.52886 35806 ft 455 kts 300°
2026-05-06 17:44 50.62605 9.44664 35807 ft 455 kts 300°
2026-05-06 17:44 50.66166 9.36427 35817 ft 455 kts 300°
2026-05-06 17:45 50.69703 9.28217 35792 ft 450 kts 300°
2026-05-06 17:45 50.73214 9.20054 35792 ft 450 kts 300°
2026-05-06 17:46 50.76730 9.11878 35795 ft 450 kts 300°
2026-05-06 17:46 50.80237 9.03669 35806 ft 450 kts 300°
2026-05-06 17:47 50.83746 8.95465 35810 ft 451 kts 302°
2026-05-06 17:47 50.87557 8.87555 35820 ft 453 kts 305°
2026-05-06 17:48 50.91534 8.79909 35823 ft 453 kts 306°
2026-05-06 17:48 50.95511 8.72159 35827 ft 452 kts 305°
2026-05-06 17:49 50.99403 8.64326 35830 ft 452 kts 304°
2026-05-06 17:49 51.03924 8.57331 35833 ft 459 kts 322°
2026-05-06 17:50 51.08373 8.52704 35835 ft 460 kts 324°
2026-05-06 17:50 51.11063 8.49925 35677 ft 461 kts 324°
2026-05-06 17:50 51.13741 8.47145 35198 ft 461 kts 324°
2026-05-06 17:51 51.16444 8.44324 34426 ft 463 kts 324°
2026-05-06 17:51 51.19125 8.41523 33882 ft 459 kts 324°
2026-05-06 17:51 51.21799 8.38728 32882 ft 462 kts 324°
2026-05-06 17:51 51.24506 8.35894 31800 ft 468 kts 324°
2026-05-06 17:52 51.27233 8.33035 30846 ft 469 kts 325°
2026-05-06 17:52 51.29960 8.30175 29878 ft 468 kts 325°
2026-05-06 17:52 51.32684 8.27317 28568 ft 469 kts 325°
2026-05-06 17:52 51.35417 8.24445 27147 ft 471 kts 325°
2026-05-06 17:53 51.38164 8.21551 25829 ft 473 kts 325°
2026-05-06 17:53 51.40906 8.18656 24644 ft 471 kts 325°
2026-05-06 17:53 51.43628 8.15780 23543 ft 467 kts 325°
2026-05-06 17:53 51.46083 8.12432 22463 ft 461 kts 310°
2026-05-06 17:54 51.47916 8.08295 21663 ft 451 kts 297°
2026-05-06 17:54 51.49071 8.03680 20835 ft 444 kts 284°
2026-05-06 17:54 51.49497 7.98821 20054 ft 437 kts 270°
2026-05-06 17:54 51.49185 7.94072 19303 ft 432 kts 257°
2026-05-06 17:55 51.48357 7.89400 18565 ft 427 kts 253°
2026-05-06 17:55 51.47544 7.84918 17898 ft 421 kts 254°
2026-05-06 17:55 51.46752 7.80443 17301 ft 413 kts 255°
2026-05-06 17:55 51.45983 7.76047 16735 ft 406 kts 255°
2026-05-06 17:56 51.45170 7.71748 16202 ft 400 kts 250°
2026-05-06 17:56 51.44094 7.67673 15781 ft 394 kts 248°
2026-05-06 17:56 51.43018 7.63656 15242 ft 390 kts 248°
2026-05-06 17:56 51.41949 7.59678 14675 ft 387 kts 248°
2026-05-06 17:57 51.40884 7.55729 14105 ft 385 kts 248°
2026-05-06 17:57 51.39824 7.51804 13529 ft 383 kts 248°
2026-05-06 17:57 51.38769 7.47905 12867 ft 381 kts 248°
2026-05-06 17:57 51.37716 7.44021 12184 ft 379 kts 248°
2026-05-06 17:58 51.36668 7.40156 11475 ft 378 kts 249°
2026-05-06 17:58 51.35619 7.36291 10998 ft 379 kts 249°
2026-05-06 17:58 51.34566 7.32427 10846 ft 379 kts 249°
2026-05-06 17:58 51.33513 7.28562 10872 ft 380 kts 249°
2026-05-06 17:59 51.32455 7.24690 10876 ft 380 kts 248°
2026-05-06 17:59 51.31413 7.20883 10879 ft 380 kts 248°
2026-05-06 17:59 51.30335 7.16947 10881 ft 380 kts 248°
2026-05-06 17:59 51.29277 7.13091 10695 ft 376 kts 248°
2026-05-06 18:00 51.28229 7.09279 10349 ft 373 kts 249°
2026-05-06 18:00 51.27218 7.05609 10104 ft 358 kts 249°
2026-05-06 18:00 51.26222 7.01995 9923 ft 343 kts 249°
2026-05-06 18:00 51.25293 6.98636 9795 ft 327 kts 249°
2026-05-06 18:01 51.24399 6.95415 9673 ft 309 kts 249°
2026-05-06 18:01 51.23543 6.92348 9405 ft 298 kts 249°
2026-05-06 18:01 51.22710 6.89355 8964 ft 293 kts 249°
2026-05-06 18:01 51.21889 6.86393 8486 ft 290 kts 249°
2026-05-06 18:02 51.20944 6.83562 8002 ft 290 kts 236°
2026-05-06 18:02 51.19718 6.81031 7519 ft 287 kts 233°
2026-05-06 18:02 51.18476 6.78551 7048 ft 285 kts 233°
2026-05-06 18:02 51.17247 6.76105 6576 ft 281 kts 233°
2026-05-06 18:03 51.16031 6.73683 6102 ft 278 kts 233°
2026-05-06 18:03 51.14828 6.71284 5585 ft 276 kts 233°
2026-05-06 18:03 51.13638 6.68910 5066 ft 274 kts 233°
2026-05-06 18:03 51.12459 6.66548 4631 ft 269 kts 233°
2026-05-06 18:04 51.11332 6.64288 4428 ft 254 kts 233°
2026-05-06 18:04 51.10247 6.62112 4084 ft 248 kts 233°
2026-05-06 18:04 51.09374 6.59841 3981 ft 236 kts 256°
2026-05-06 18:04 51.09339 6.57294 4010 ft 230 kts 288°
2026-05-06 18:05 51.10148 6.55177 4014 ft 225 kts 317°
2026-05-06 18:05 51.11326 6.53545 4009 ft 224 kts 323°
2026-05-06 18:05 51.12568 6.52051 3991 ft 223 kts 332°
2026-05-06 18:05 51.14016 6.51238 3988 ft 221 kts 355°
2026-05-06 18:06 51.15487 6.51633 3845 ft 212 kts 20°
2026-05-06 18:06 51.16804 6.52551 3675 ft 207 kts 31°
2026-05-06 18:06 51.17863 6.54109 3510 ft 210 kts 51°
2026-05-06 18:06 51.18750 6.55959 3253 ft 209 kts 51°
2026-05-06 18:07 51.19628 6.57795 2973 ft 207 kts 51°
2026-05-06 18:07 51.20482 6.59577 2690 ft 197 kts 51°
2026-05-06 18:07 51.21295 6.61271 2428 ft 188 kts 51°
2026-05-06 18:07 51.22072 6.62891 2175 ft 180 kts 51°
2026-05-06 18:08 51.22825 6.64461 1932 ft 177 kts 51°
2026-05-06 18:08 51.23567 6.66010 1694 ft 175 kts 50°
2026-05-06 18:08 51.24316 6.67573 1448 ft 178 kts 51°
2026-05-06 18:08 51.25051 6.69110 1229 ft 169 kts 50°
2026-05-06 18:09 51.25735 6.70542 958 ft 151 kts 51°
2026-05-06 18:09 51.26316 6.71761 757 ft 134 kts 49°
2026-05-06 18:09 51.26858 6.72893 578 ft 129 kts 51°
2026-05-06 18:09 51.27396 6.74020 401 ft 127 kts 50°
2026-05-06 18:10 51.27930 6.75135 242 ft 126 kts 49°
2026-05-06 18:10 51.28460 6.76231 125 ft 118 kts 51°
2026-05-06 18:10 51.28849 6.77046 126 ft 68 kts 52°
2026-05-06 18:10 51.29041 6.77480 128 ft 28 kts 71°
2026-05-06 18:11 51.29032 6.77576 127 ft 7 kts 125°